Flag for U.S.A. Weather past 2 weeks in Lafayette, Indiana, U.S.A.

Now
5 °F

Clear.


Feels Like: 5 °F
Forecast: 3 / 19 °F
Wind: No wind

Location: Purdue University Airport

Current Time: Feb 27, 2015 at 9:25:23 PM

Latest Report: Feb 27, 2015 at 8:54 PM


Visibility: 10 mi

Pressure: 30.71 "Hg

Humidity: 66%

Dew point: -4 °F

Location of LafayetteLocation

Historic Weather in Lafayette — Graph

°F

Lafayette temperature yesterday

Maximum temperature yesterday: 21 °F (at 12:54 AM)
Minimum temperature yesterday: 8 °F (at 8:54 PM)
Average temperature yesterday: 17 °F

Past Weeks' High & Low Weather Summary

 TemperatureHumidityPressure
High31 °F (Feb 25, 2:54 PM)96% (Feb 21, 9:54 AM)30.74 "Hg (Feb 21, 9:54 AM)
Low-5 °F (Feb 20, 2:54 AM)27% (Feb 15, 4:54 PM)29.82 "Hg (Feb 14, 6:54 AM)
Average14 °F66%30.23 "Hg
* Reported Feb 12 7:54 PM — Feb 27 7:54 PM, Lafayette, Weather by CustomWeather, © 2015

Note: Actual official high and low records may vary slightly from our data, if they occured in-between our weather recording intervals... More about our weather records

Advertising

Lafayette weather history for previous 24 hours

 ConditionsComfort  
Time TempWeatherWind HumidityBarometerVisibility
7:54 PM
Fri, Feb 27
8 °FClear.3 mph60%30.71 "Hg10 mi
6:54 PM11 °FClear.5 mph56%30.68 "Hg10 mi
5:54 PM13 °FSunny.7 mph51%30.68 "Hg10 mi
4:54 PM15 °FSunny.8 mph46%30.66 "Hg10 mi
3:54 PM15 °FSunny.7 mph46%30.66 "Hg10 mi
2:54 PM15 °FSunny.8 mph49%30.66 "Hg10 mi
1:54 PM15 °FSunny.7 mph46%30.66 "Hg10 mi
12:54 PM14 °FSunny.7 mph49%30.67 "Hg10 mi
11:54 AM13 °FSunny.8 mph51%30.67 "Hg10 mi
10:54 AM9 °FSunny.5 mph61%30.66 "Hg10 mi
9:54 AM3 °FSunny.6 mph72%30.64 "Hg10 mi
8:54 AM-1 °FSunny.3 mph82%30.63 "Hg10 mi
7:54 AM-4 °FSunny.3 mph83%30.59 "Hg10 mi
6:54 AM-4 °FClear.3 mph83%30.57 "Hg10 mi
5:54 AM-3 °FPassing clouds.3 mph82%30.55 "Hg10 mi
4:54 AM-1 °FClear.No wind79%30.52 "Hg10 mi
3:54 AM3 °FPassing clouds.5 mph72%30.50 "Hg10 mi
2:54 AM4 °FOvercast.3 mph73%30.49 "Hg10 mi
1:54 AM5 °FPassing clouds.8 mph72%30.47 "Hg10 mi
12:54 AM8 °FMostly cloudy.10 mph69%30.45 "Hg10 mi
11:54 PM
Thu, Feb 26
11 °FOvercast.10 mph81%30.44 "Hg10 mi
10:54 PM10 °FOvercast.3 mph84%30.43 "Hg10 mi
9:54 PM11 °FOvercast.5 mph77%30.42 "Hg10 mi
Weather by CustomWeather, © 2015

See weather overviewHow to use our weather pages